| time (UTC) | temp F | wind direction | speed MPH | gust MPH | rain 1hr in | rain 24hr in | rain mn in | humidity % | barometer mb |
| 20260502211038 | 69 | 248 | 4.0 | 10.0 | 0.00 | 0.00 | 0.00 | 11 | 1019.4 |
| 20260502210017 | 69 | 248 | 5.0 | 9.0 | 0.00 | 0.00 | 0.00 | 11 | 1019.6 |
| 20260502205037 | 69 | 135 | 5.0 | 11.0 | 0.00 | 0.00 | 0.00 | 12 | 1019.6 |
| 20260502204017 | 69 | 270 | 4.0 | 9.0 | 0.00 | 0.00 | 0.00 | 14 | 1019.8 |
| 20260502203017 | 70 | 225 | 4.0 | 8.0 | 0.00 | 0.00 | 0.00 | 14 | 1020.3 |
| 20260502202017 | 69 | 270 | 4.0 | 10.0 | 0.00 | 0.00 | 0.00 | 16 | 1020.4 |
| 20260502201038 | 68 | 248 | 5.0 | 11.0 | 0.00 | 0.00 | 0.00 | 16 | 1020.7 |
| 20260502200017 | 68 | 225 | 3.0 | 7.0 | 0.00 | 0.00 | 0.00 | 15 | 1020.7 |
| 20260502195017 | 69 | 225 | 5.0 | 12.0 | 0.00 | 0.00 | 0.00 | 16 | 1020.4 |
| 20260502194017 | 68 | 270 | 2.0 | 7.0 | 0.00 | 0.00 | 0.00 | 16 | 1020.5 |
| 20260502193017 | 68 | 225 | 5.0 | 11.0 | 0.00 | 0.00 | 0.00 | 16 | 1020.7 |
| 20260502192017 | 67 | 248 | 3.0 | 7.0 | 0.00 | 0.00 | 0.00 | 18 | 1020.5 |
| 20260502191037 | 68 | 248 | 3.0 | 6.0 | 0.00 | 0.00 | 0.00 | 17 | 1020.7 |
| 20260502190058 | 67 | 225 | 6.0 | 13.0 | 0.00 | 0.00 | 0.00 | 16 | 1020.9 |
| 20260502185018 | 67 | 135 | 4.0 | 12.0 | 0.00 | 0.00 | 0.00 | 15 | 1021.3 |
| 20260502184018 | 67 | 158 | 3.0 | 7.0 | 0.00 | 0.00 | 0.00 | 15 | 1021.4 |
| 20260502183017 | 67 | 135 | 3.0 | 5.0 | 0.00 | 0.00 | 0.00 | 17 | 1021.6 |
| 20260502182017 | 67 | 248 | 3.0 | 7.0 | 0.00 | 0.00 | 0.00 | 20 | 1021.4 |
| 20260502181017 | 66 | 225 | 3.0 | 6.0 | 0.00 | 0.00 | 0.00 | 19 | 1021.2 |
| 20260502164017 | 62 | 270 | 1.0 | 3.0 | 0.00 | 0.00 | 0.00 | 24 | 1022.3 |
| 20260502163017 | 61 | 270 | 2.0 | 6.0 | 0.00 | 0.00 | 0.00 | 24 | 1022.3 |
| 20260502162037 | 61 | 270 | 3.0 | 5.0 | 0.00 | 0.00 | 0.00 | 24 | 1022.0 |
| 20260502161037 | 61 | 248 | 2.0 | 4.0 | 0.00 | 0.00 | 0.00 | 24 | 1022.1 |
| 20260502152017 | 57 | 113 | 1.0 | 1.0 | 0.00 | 0.00 | 0.00 | 29 | 1022.4 |
| 20260502151037 | 56 | 113 | 1.0 | 1.0 | 0.00 | 0.00 | 0.00 | 31 | 1022.4 |
| 20260502123016 | 52 | 113 | 5.0 | 11.0 | 0.00 | 0.00 | 0.00 | 29 | 1021.9 |
| 20260502122016 | 53 | 113 | 6.0 | 12.0 | 0.00 | 0.00 | 0.00 | 28 | 1022.2 |
| 20260502121058 | 53 | 113 | 8.0 | 12.0 | 0.00 | 0.00 | 0.00 | 25 | 1022.3 |
| 20260502115036 | 53 | 135 | 4.0 | 8.0 | 0.00 | 0.00 | 0.00 | 27 | 1022.2 |
| 20260502114017 | 52 | 113 | 5.0 | 12.0 | 0.00 | 0.00 | 0.00 | 28 | 1022.3 |
| 20260502113037 | 52 | 113 | 6.0 | 15.0 | 0.00 | 0.00 | 0.00 | 28 | 1022.2 |
| 20260502112016 | 53 | 113 | 8.0 | 14.0 | 0.00 | 0.00 | 0.00 | 27 | 1022.2 |
| 20260502111017 | 53 | 90 | 6.0 | 10.0 | 0.00 | 0.00 | 0.00 | 29 | 1022.3 |
| 20260502110017 | 53 | 135 | 4.0 | 9.0 | 0.00 | 0.00 | 0.00 | 28 | 1022.3 |
| 20260502105017 | 53 | 113 | 8.0 | 14.0 | 0.00 | 0.00 | 0.00 | 27 | 1022.3 |
| 20260502104037 | 55 | 113 | 6.0 | 11.0 | 0.00 | 0.00 | 0.00 | 25 | 1022.7 |
| 20260502103017 | 55 | 68 | 9.0 | 17.0 | 0.00 | 0.00 | 0.00 | 25 | 1022.3 |
| 20260502102016 | 53 | 113 | 5.0 | 10.0 | 0.00 | 0.00 | 0.00 | 28 | 1022.3 |
| 20260502101016 | 53 | 113 | 8.0 | 14.0 | 0.00 | 0.00 | 0.00 | 28 | 1022.3 |
| 20260502091017 | 53 | 113 | 6.0 | 15.0 | 0.00 | 0.00 | 0.00 | 29 | 1022.2 |
| 20260502071017 | 51 | 90 | 11.0 | 16.0 | 0.00 | 0.00 | 0.00 | 31 | 1021.8 |
| 20260502070017 | 50 | 90 | 10.0 | 14.0 | 0.00 | 0.00 | 0.00 | 33 | 1021.5 |
| 20260502065016 | 51 | 135 | 5.0 | 10.0 | 0.00 | 0.00 | 0.00 | 32 | 1021.3 |
| 20260502064017 | 51 | 113 | 8.0 | 15.0 | 0.00 | 0.00 | 0.00 | 31 | 1021.2 |
| 20260502063037 | 53 | 113 | 5.0 | 12.0 | 0.00 | 0.00 | 0.00 | 29 | 1021.5 |
| 20260502062017 | 53 | 113 | 8.0 | 14.0 | 0.00 | 0.00 | 0.00 | 27 | 1021.0 |
| 20260502061017 | 52 | 113 | 11.0 | 17.0 | 0.00 | 0.00 | 0.00 | 30 | 1021.1 |
| 20260502060017 | 51 | 113 | 3.0 | 7.0 | 0.00 | 0.00 | 0.00 | 33 | 1020.7 |
| 20260502055017 | 51 | 113 | 7.0 | 16.0 | 0.00 | 0.00 | 0.00 | 36 | 1020.7 |
| 20260502054018 | 51 | 90 | 10.0 | 16.0 | 0.00 | 0.00 | 0.00 | 36 | 1020.7 |
| 20260502053017 | 51 | 113 | 10.0 | 14.0 | 0.00 | 0.00 | 0.00 | 38 | 1020.7 |
| 20260502052017 | 51 | 113 | 10.0 | 16.0 | 0.00 | 0.00 | 0.00 | 38 | 1020.4 |
| 20260502051017 | 53 | 113 | 10.0 | 16.0 | 0.00 | 0.00 | 0.00 | 38 | 1020.5 |
| 20260502050017 | 54 | 90 | 10.0 | 17.0 | 0.00 | 0.00 | 0.00 | 36 | 1020.5 |
| 20260502045017 | 52 | 113 | 8.0 | 13.0 | 0.00 | 0.00 | 0.00 | 42 | 1020.2 |
| 20260502044017 | 53 | 113 | 7.0 | 14.0 | 0.00 | 0.00 | 0.00 | 42 | 1020.2 |
| 20260502043039 | 54 | 113 | 3.0 | 8.0 | 0.00 | 0.00 | 0.00 | 40 | 1020.6 |
| 20260502042018 | 55 | 113 | 5.0 | 10.0 | 0.00 | 0.00 | 0.00 | 39 | 1020.2 |
| 20260502041018 | 54 | 90 | 10.0 | 16.0 | 0.00 | 0.00 | 0.00 | 39 | 1019.8 |
| 20260502040038 | 54 | 90 | 11.0 | 17.0 | 0.00 | 0.00 | 0.00 | 42 | 1019.8 |
| 20260502035037 | 54 | 90 | 9.0 | 18.0 | 0.00 | 0.00 | 0.00 | 41 | 1019.7 |
| 20260502034017 | 54 | 90 | 9.0 | 14.0 | 0.00 | 0.00 | 0.00 | 42 | 1019.6 |
| 20260502033018 | 55 | 113 | 9.0 | 14.0 | 0.00 | 0.00 | 0.00 | 40 | 1019.4 |
| 20260502032017 | 55 | 113 | 8.0 | 13.0 | 0.00 | 0.00 | 0.00 | 41 | 1018.6 |
| 20260502031018 | 54 | 113 | 7.0 | 11.0 | 0.00 | 0.00 | 0.00 | 43 | 1018.5 |
| 20260502030038 | 55 | 113 | 4.0 | 8.0 | 0.00 | 0.00 | 0.00 | 41 | 1018.4 |
| 20260502025017 | 56 | 113 | 3.0 | 6.0 | 0.00 | 0.00 | 0.00 | 37 | 1018.2 |
| 20260502024017 | 57 | 113 | 4.0 | 8.0 | 0.00 | 0.00 | 0.00 | 38 | 1018.5 |
| 20260502023037 | 58 | 225 | 1.0 | 4.0 | 0.00 | 0.00 | 0.00 | 35 | 1018.4 |
| 20260502022018 | 59 | 338 | 1.0 | 3.0 | 0.00 | 0.00 | 0.00 | 33 | 1018.6 |
| 20260502021017 | 60 | 315 | 1.0 | 3.0 | 0.00 | 0.00 | 0.00 | 33 | 1018.4 |
| 20260502020017 | 61 | 315 | 2.0 | 7.0 | 0.00 | 0.00 | 0.00 | 31 | 1018.7 |
| 20260502015019 | 62 | 315 | 4.0 | 8.0 | 0.00 | 0.00 | 0.00 | 30 | 1018.6 |
| 20260502014017 | 62 | 315 | 4.0 | 9.0 | 0.00 | 0.00 | 0.00 | 30 | 1018.5 |
| 20260502013018 | 62 | 315 | 4.0 | 8.0 | 0.00 | 0.00 | 0.00 | 31 | 1018.6 |
| 20260502012015 | 62 | 315 | 4.0 | 10.0 | 0.00 | 0.00 | 0.00 | 29 | 1018.5 |
| 20260502011018 | 63 | 315 | 4.0 | 9.0 | 0.00 | 0.00 | 0.00 | 30 | 1018.6 |
| 20260502010017 | 63 | 315 | 4.0 | 8.0 | 0.00 | 0.00 | 0.00 | 28 | 1018.5 |
| 20260502005058 | 63 | 315 | 4.0 | 9.0 | 0.00 | 0.00 | 0.00 | 30 | 1019.0 |
| 20260502004017 | 63 | 315 | 6.0 | 10.0 | 0.00 | 0.00 | 0.00 | 29 | 1019.0 |
| 20260502003017 | 64 | 315 | 3.0 | 7.0 | 0.00 | 0.00 | 0.00 | 29 | 1018.9 |
| 20260502002017 | 64 | 315 | 5.0 | 9.0 | 0.00 | 0.00 | 0.00 | 30 | 1019.2 |
| 20260502001018 | 64 | 315 | 4.0 | 10.0 | 0.00 | 0.00 | 0.00 | 29 | 1019.3 |
| 20260502000017 | 63 | 0 | 6.0 | 12.0 | 0.00 | 0.00 | 0.00 | 29 | 1019.4 |
| 20260501235017 | 63 | 315 | 6.0 | 11.0 | 0.00 | 0.00 | 0.00 | 29 | 1019.3 |
| 20260501234017 | 64 | 315 | 5.0 | 13.0 | 0.00 | 0.00 | 0.00 | 28 | 1019.4 |
| 20260501233017 | 64 | 315 | 6.0 | 12.0 | 0.00 | 0.00 | 0.00 | 27 | 1019.7 |
| 20260501232017 | 64 | 315 | 5.0 | 13.0 | 0.00 | 0.00 | 0.00 | 27 | 1019.6 |
| 20260501231018 | 64 | 315 | 5.0 | 13.0 | 0.00 | 0.00 | 0.00 | 26 | 1019.8 |
| 20260501230017 | 64 | 315 | 4.0 | 10.0 | 0.00 | 0.00 | 0.00 | 26 | 1019.8 |
| 20260501225017 | 63 | 315 | 5.0 | 10.0 | 0.00 | 0.00 | 0.00 | 27 | 1019.9 |
| 20260501224038 | 63 | 315 | 5.0 | 10.0 | 0.00 | 0.00 | 0.00 | 27 | 1020.0 |
| 20260501223017 | 63 | 315 | 6.0 | 11.0 | 0.00 | 0.00 | 0.00 | 28 | 1020.1 |
| 20260501222017 | 63 | 315 | 5.0 | 11.0 | 0.00 | 0.00 | 0.00 | 27 | 1020.2 |
| 20260501221017 | 63 | 315 | 3.0 | 11.0 | 0.00 | 0.00 | 0.00 | 26 | 1020.2 |
| 20260501220037 | 63 | 315 | 4.0 | 9.0 | 0.00 | 0.00 | 0.00 | 27 | 1020.4 |
| 20260501215017 | 63 | 315 | 4.0 | 10.0 | 0.00 | 0.00 | 0.00 | 25 | 1020.5 |
| 20260501214017 | 63 | 270 | 6.0 | 14.0 | 0.00 | 0.00 | 0.00 | 25 | 1020.6 |
| 20260501213018 | 63 | 315 | 5.0 | 8.0 | 0.00 | 0.00 | 0.00 | 26 | 1020.8 |